This is the latest recevied weather packets stored in our database for station/object N5DGC. If no packets are shown the sender has not sent any weather packets the latest 10 day(s).
| Time | Temp. | Humidity | Pressure | Rain* | Wind** | Luminosity | Snow |
|---|---|---|---|---|---|---|---|
| 1778020175 | 18.89° C | 40% | 1229.4 hPa | 0 mm | - | 629 W/m² | - |
| 1778019872 | 18.89° C | 39% | 1229.6 hPa | 0 mm | - | 650 W/m² | - |
| 1778019568 | 18.89° C | 40% | 1229.7 hPa | 0 mm | - | 666 W/m² | - |
| 1778019265 | 18.33° C | 40% | 1229.7 hPa | 0 mm | - | 695 W/m² | - |
| 1778018962 | 17.78° C | 40% | 1229.9 hPa | 0 mm | - | 724 W/m² | - |
| 1778018659 | 17.78° C | 42% | 1229.9 hPa | 0 mm | - | 719 W/m² | - |
| 1778018357 | 16.67° C | 43% | 1230 hPa | 0 mm | - | 732 W/m² | - |
| 1778018055 | 16.67° C | 45% | 1230.4 hPa | 0 mm | - | 794 W/m² | - |
| 1778017752 | 16.11° C | 50% | 1230.1 hPa | 0 mm | - | 713 W/m² | - |
| 1778017450 | 15.56° C | 53% | 1230.6 hPa | 0 mm | - | 653 W/m² | - |
| 1778017147 | 16.11° C | 53% | 1230.6 hPa | 0 mm | - | 492 W/m² | - |
| 1778016845 | 16.11° C | 57% | 1230.5 hPa | 0 mm | - | 265 W/m² | - |
| 1778016540 | 16.11° C | 51% | 1230.3 hPa | 0 mm | - | 193 W/m² | - |
| 1778016238 | 16.67° C | 51% | 1230.4 hPa | 0 mm | - | 150 W/m² | - |
| 1778015934 | 16.11° C | 47% | 1230.3 hPa | 0 mm | - | 167 W/m² | - |
| 1778015631 | 16.11° C | 43% | 1230.4 hPa | 0 mm | - | 139 W/m² | - |
| 1778015328 | 16.11° C | 42% | 1230.3 hPa | 0 mm | - | 167 W/m² | - |
| 1778015025 | 17.22° C | 41% | 1230.4 hPa | 0 mm | - | 192 W/m² | - |
| 1778014721 | 17.22° C | 41% | 1230.3 hPa | 0 mm | - | 240 W/m² | - |
| 1778014420 | 17.22° C | 40% | 1230.3 hPa | 0 mm | - | 286 W/m² | - |
| 1778014116 | 17.22° C | 41% | 1230.3 hPa | 0 mm | - | 532 W/m² | - |
| 1778013814 | 18.33° C | 39% | 1230.4 hPa | 0 mm | - | 625 W/m² | - |
| 1778013511 | 18.33° C | 39% | 1230.6 hPa | 0 mm | - | 1032 W/m² | - |
| 1778013208 | 18.33° C | 39% | 1230.6 hPa | 0 mm | - | 230 W/m² | - |
| 1778012904 | 17.22° C | 42% | 1231 hPa | 0 mm | - | 1001 W/m² | - |
* Rain latest hour (hover to see other rain measurements)
** Current wind speed in m/s (hover to see current wind gust speed)